Location: Sungai Anya
(2.6167°N, 114.0500°E)
Time: 11:51:49
(UTC+00:00)

Cosmos 220 Rocket - Pass Details

Date: 19 October 2021
Orbit: 575 x 615 km, 74.0° (Epoch: 28 November)

Event Time Altitude Azimuth Distance (km) Brightness Sun altitude
Rises 11:04:52 0° 194° (SSW) 2,866 7.8 -14.3°
Reaches altitude 10° 11:07:06 10° 194° (SSW) 1,965 6.9 -14.8°
Maximum altitude 11:11:30 84° 280° (W) 620 4.1 -15.9°
Drops below altitude 10° 11:15:54 10° 10° (N) 1,965 6.4 -17.0°
Enters shadow 11:17:49 - 11° (N) 2,738 7.2 -17.5°
